Total_Precipitation_Accumulation
1.54 1.63 1.52 1.47 1.39 1.38 1.35 1.21 1.14 1.09 0.96 0.85 0.68 0.61 0.60 0.53 0.58 0.74 0.79 0.84 0.85 1.09 1.41 1.52 1.41 1.24 1.19 1.15 1.16 1.09 0.95 0.86 0.76 0.68 0.60 0.54 0.52 0.51 0.47 0.46 0.46 0.42 0.39
1.73 1.80 1.79 1.77 1.72 1.73 1.80 1.61 1.41 1.45 1.31 1.26 1.13 1.04 0.93 0.88 0.87 0.94 1.09 1.08 0.94 1.02 1.30 1.56 1.63 1.57 1.55 1.50 1.42 1.28 1.15 1.06 0.99 0.93 0.86 0.77 0.69 0.62 0.57 0.55 0.52 0.48 0.46
1.86 1.94 2.11 2.08 2.01 1.98 2.03 2.01 1.85 1.85 1.69 1.59 1.48 1.31 1.23 1.29 1.27 1.18 1.30 1.46 1.26 1.21 1.20 1.35 1.50 1.61 1.70 1.72 1.67 1.56 1.42 1.30 1.21 1.15 1.09 0.99 0.91 0.84 0.80 0.72 0.66 0.62 0.61
1.98 2.17 2.28 2.30 2.28 2.20 2.30 2.43 2.38 2.19 2.07 1.91 1.75 1.49 1.39 1.48 1.50 1.49 1.50 1.63 1.75 1.62 1.53 1.39 1.41 1.50 1.65 1.75 1.77 1.79 1.70 1.53 1.39 1.31 1.26 1.18 1.11 1.02 0.91 0.82 0.78 0.77 0.75
2.36 2.44 2.58 2.67 2.68 2.71 2.72 2.62 2.74 2.53 2.47 2.32 2.01 1.82 1.61 1.56 1.61 1.54 1.61 1.59 1.68 1.71 1.72 1.62 1.48 1.47 1.62 1.83 1.85 1.92 1.92 1.82 1.70 1.54 1.40 1.30 1.27 1.19 1.06 0.99 0.93 0.88 0.82
3.03 3.11 3.10 3.15 3.14 3.19 3.06 3.01 2.99 2.80 2.64 2.61 2.22 2.04 1.88 1.71 1.67 1.62 1.60 1.60 1.53 1.45 1.53 1.61 1.66 1.48 1.55 1.67 1.75 1.88 1.99 2.10 2.01 1.84 1.72 1.59 1.47 1.31 1.15 1.08 1.00 0.93 0.90
4.01 4.06 3.96 3.86 3.71 3.58 3.39 3.28 3.11 2.93 2.71 2.63 2.51 2.19 1.78 1.52 1.50 1.43 1.44 1.54 1.54 1.48 1.49 1.54 1.56 1.48 1.41 1.42 1.43 1.58 1.80 2.08 2.20 2.12 1.97 1.80 1.59 1.42 1.29 1.20 1.12 1.06 1.00
4.87 4.98 4.90 4.71 4.49 4.15 3.72 3.39 3.20 3.04 2.79 2.74 2.70 2.61 2.08 1.69 1.40 1.15 1.20 1.26 1.31 1.40 1.37 1.33 1.38 1.45 1.40 1.38 1.28 1.31 1.45 1.68 1.97 2.16 2.14 1.97 1.80 1.62 1.50 1.41 1.34 1.26 1.16
5.01 5.18 5.16 4.91 4.54 4.01 3.53 3.36 3.28 3.15 2.97 2.87 2.73 2.78 2.39 2.00 1.66 1.26 1.05 0.98 1.05 1.09 1.09 1.12 1.17 1.25 1.24 1.29 1.23 1.22 1.28 1.41 1.68 1.92 1.89 1.71 1.61 1.56 1.52 1.49 1.43 1.35 1.29
4.83 4.73 4.60 4.20 3.75 3.42 3.17 3.09 3.08 2.91 2.89 2.81 2.72 2.43 2.21 1.98 1.79 1.48 1.17 1.00 0.95 0.93 0.94 0.95 1.01 1.15 1.21 1.22 1.20 1.19 1.18 1.25 1.40 1.56 1.64 1.58 1.49 1.46 1.49 1.53 1.51 1.48 1.46
4.06 3.71 3.37 3.09 2.95 2.75 2.55 2.47 2.47 2.44 2.33 2.28 2.28 2.22 2.13 1.93 1.67 1.48 1.29 1.11 1.04 0.95 0.93 0.95 1.00 1.07 1.14 1.18 1.23 1.28 1.24 1.18 1.21 1.24 1.29 1.33 1.35 1.38 1.40 1.47 1.54 1.58 1.56
3.33 2.88 2.65 2.43 2.29 2.11 1.90 1.78 1.77 1.83 1.91 1.98 2.05 2.03 1.98 1.93 1.79 1.69 1.55 1.33 1.23 1.17 1.05 1.01 1.05 1.11 1.20 1.27 1.35 1.54 1.31 1.19 1.18 1.17 1.14 1.14 1.16 1.20 1.28 1.36 1.44 1.51 1.59
3.02 2.57 2.18 1.98 1.75 1.58 1.49 1.43 1.40 1.40 1.48 1.59 1.73 1.79 1.78 1.75 1.71 1.72 1.73 1.60 1.45 1.31 1.15 1.10 1.11 1.14 1.18 1.29 1.41 1.58 1.38 1.30 1.20 1.10 1.04 1.01 1.02 1.03 1.08 1.15 1.23 1.31 1.39
2.45 2.12 1.70 1.39 1.20 1.08 1.02 1.04 1.09 1.14 1.17 1.22 1.32 1.45 1.48 1.47 1.51 1.57 1.65 1.69 1.70 1.52 1.26 1.17 1.23 1.25 1.24 1.24 1.42 1.48 1.26 1.34 1.20 1.11 1.06 1.02 0.97 0.95 0.98 1.04 1.15 1.23 1.22
1.66 1.43 1.19 1.03 0.93 0.89 0.84 0.81 0.82 0.85 0.89 0.95 1.02 1.13 1.25 1.31 1.34 1.40 1.49 1.57 1.62 1.60 1.45 1.27 1.24 1.23 1.23 1.24 1.39 1.11 1.00 1.17 1.12 1.08 1.04 0.97 0.90 0.86 0.86 0.87 0.91 0.96 0.99
1.01 0.93 0.84 0.79 0.75 0.70 0.69 0.70 0.68 0.67 0.76 0.79 0.80 0.87 0.99 1.11 1.19 1.27 1.36 1.41 1.41 1.39 1.39 1.23 1.15 1.15 1.14 1.11 1.22 0.93 0.91 1.05 0.97 0.92 0.88 0.86 0.83 0.78 0.76 0.77 0.80 0.81 0.80
0.74 0.70 0.65 0.62 0.61 0.61 0.60 0.59 0.60 0.58 0.63 0.74 0.82 0.86 0.90 0.96 1.03 1.07 1.11 1.16 1.25 1.30 1.38 1.37 1.24 1.17 1.12 1.07 1.02 0.88 0.80 0.78 0.81 0.85 0.80 0.77 0.72 0.69 0.64 0.60 0.57 0.55 0.55
0.62 0.60 0.57 0.55 0.55 0.56 0.58 0.57 0.56 0.56 0.58 0.64 0.70 0.74 0.75 0.75 0.81 0.89 0.95 0.98 1.04 1.11 1.20 1.31 1.23 1.10 1.05 1.00 0.92 0.86 0.73 0.64 0.64 0.69 0.65 0.60 0.58 0.54 0.50 0.46 0.42 0.39 0.38
0.57 0.53 0.52 0.52 0.52 0.53 0.52 0.54 0.54 0.53 0.52 0.56 0.57 0.58 0.61 0.63 0.65 0.68 0.71 0.76 0.82 0.86 0.95 1.01 1.02 0.95 0.92 0.85 0.81 0.74 0.66 0.66 0.56 0.58 0.54 0.50 0.46 0.41 0.35 0.31 0.30 0.30 0.30
0.55 0.55 0.54 0.51 0.47 0.44 0.39 0.37 0.37 0.38 0.37 0.39 0.40 0.41 0.47 0.54 0.55 0.56 0.54 0.56 0.61 0.70 0.78 0.84 0.85 0.84 0.81 0.74 0.74 0.71 0.64 0.58 0.52 0.42 0.44 0.40 0.36 0.32 0.30 0.28 0.25 0.23 0.23
0.47 0.44 0.40 0.36 0.29 0.23 0.21 0.19 0.22 0.25 0.27 0.28 0.29 0.28 0.30 0.38 0.46 0.46 0.45 0.49 0.55 0.63 0.66 0.70 0.69 0.66 0.64 0.69 0.71 0.63 0.58 0.52 0.47 0.37 0.40 0.40 0.39 0.41 0.44 0.39 0.30 0.23 0.19
0.41 0.31 0.26 0.24 0.21 0.16 0.15 0.14 0.16 0.23 0.26 0.27 0.28 0.28 0.28 0.30 0.33 0.35 0.40 0.50 0.60 0.61 0.63 0.66 0.63 0.62 0.60 0.60 0.61 0.61 0.60 0.60 0.60 0.45 0.44 0.41 0.38 0.43 0.42 0.40 0.33 0.23 0.17
0.39 0.34 0.27 0.21 0.18 0.16 0.13 0.13 0.14 0.22 0.28 0.29 0.30 0.31 0.27 0.27 0.30 0.32 0.36 0.42 0.48 0.50 0.57 0.68 0.73 0.68 0.67 0.67 0.68 0.65 0.68 0.70 0.67 0.56 0.59 0.56 0.40 0.39 0.30 0.25 0.24 0.19 0.17
0.43 0.41 0.33 0.28 0.24 0.16 0.10 0.10 0.12 0.20 0.29 0.30 0.31 0.32 0.33 0.33 0.32 0.34 0.35 0.37 0.44 0.49 0.52 0.56 0.68 0.67 0.62 0.64 0.69 0.70 0.72 0.73 0.71 0.67 0.69 0.69 0.45 0.37 0.28 0.33 0.28 0.19 0.16
0.41 0.36 0.32 0.30 0.31 0.23 0.11 0.10 0.12 0.24 0.33 0.30 0.26 0.25 0.28 0.31 0.32 0.32 0.36 0.45 0.50 0.54 0.46 0.49 0.59 0.65 0.67 0.67 0.64 0.67 0.80 0.91 0.86 0.68 0.64 0.68 0.53 0.42 0.35 0.36 0.31 0.23 0.18
0.41 0.33 0.28 0.28 0.28 0.25 0.14 0.12 0.15 0.25 0.34 0.31 0.28 0.26 0.24 0.24 0.26 0.26 0.35 0.47 0.56 0.57 0.51 0.54 0.68 0.75 0.73 0.79 0.75 0.76 0.92 0.96 0.90 0.84 0.67 0.65 0.61 0.55 0.53 0.38 0.34 0.31 0.30